Content
SEND FEEDBACK

Daily
Averages
Monthly
Summary
Mexico

SAN MARTINIANO, QUINTANA ROO


Home > North America > Mexico > Quintana Roo
Elevation: 49 feet     Latitude: 20 47N     Longitude: 087 16W

WEATHER
 
SELECT A DAY
Number of Records: 202,032;   Date Range: 2/21/06 - 10/22/14
 
SHARE

PRINT THIS DATA

[ ← Previous Day ]
WEATHER ALMANAC - JULY 21, 2014
[ Next Day → ]
[ °C ]   °F
Weather ElementAverageHighLow
Temperature81.7 °F93.2 °F (12:15 pm)75.2 °F (10:55 pm)
Dewpoint30.1 °F77 °F (1:55 pm) (7:00 pm)
Humidity60.8 %100 % (5:55 pm)46 % (12:35 pm)
Barometer30.07 in30.10 in (8:35 pm)30.02 in (2:55 pm)
Wind Speed2.4 mph13.8 mph (4:55 pm)
Wind Gust19.6 mph (8:55 pm)
Weather ElementAverage
Visibility9.3 mi
Wind DirectionE (89.7 °)

Weather ElementTotal
Precipitation0.18 in
Cooling Degree Days19.2 (Base 65)
Growing Degree Days34.2 (Base 50)
Averaged from 70 records on July 21, 2014
WEATHER CONDITIONS BREAKOUT
WIND DIRECTION BREAKOUT
WEATHER BY HOUR - JULY 21, 2014
[ °C ]   °F
Local TimeTemperatureDewpointHumidityBarometerVisibilityWind DirectionWind SpeedGust SpeedPrecipitationEventsConditions
12:15 AM78.8 °F0.0 °F30.08 in10.0 miCalmClear
12:35 AM78.8 °F0.0 °F30.08 in10.0 miCalmClear
12:55 AM78.8 °F0.0 °F30.09 in10.0 miCalmClear
1:15 AM78.8 °F0.0 °F30.09 in10.0 miCalmClear
1:35 AM78.8 °F0.0 °F30.08 in10.0 miESE (120°)3.5 mphClear
1:55 AM78.8 °F0.0 °F30.07 in10.0 miSE (130°)3.5 mphClear
2:15 AM77.0 °F0.0 °F30.07 in10.0 miCalmClear
2:35 AM77.0 °F0.0 °F30.06 in10.0 miCalmClear
2:55 AM77.0 °F0.0 °F30.06 in10.0 miSE (130°)3.5 mphClear
3:15 AM77.0 °F0.0 °F30.05 in10.0 miCalmClear
3:35 AM77.0 °F0.0 °F30.04 in10.0 miCalmClear
3:55 AM77.0 °F0.0 °F30.04 in10.0 miCalmClear
4:15 AM77.0 °F0.0 °F30.03 in10.0 miCalmClear
4:35 AM77.0 °F0.0 °F30.03 in7.0 miCalmClear
4:55 AM75.2 °F0.0 °F30.03 in7.0 miCalmClear
5:15 AM77.0 °F0.0 °F30.03 in7.0 miCalmClear
5:35 AM77.0 °F0.0 °F30.04 in7.0 miCalmClear
5:55 AM75.2 °F0.0 °F30.04 in5.0 miCalmHaze
6:15 AM75.2 °F0.0 °F30.05 in5.0 miCalmHaze
6:35 AM75.2 °F0.0 °F30.06 in7.0 miCalmClear
6:55 AM75.2 °F0.0 °F30.07 in7.0 miCalmClear
7:15 AM75.2 °F0.0 °F30.07 in5.0 miCalmHaze
7:35 AM77.0 °F0.0 °F30.08 in7.0 miCalmClear
7:55 AM78.8 °F0.0 °F30.09 in10.0 miCalmClear
8:15 AM80.6 °F0.0 °F30.09 in10.0 miCalmClear
8:35 AM82.4 °F0.0 °F30.10 in10.0 miCalmClear
8:55 AM84.2 °F77.0 °F79 %30.10 in10.0 miCalmClear
9:35 AM84.2 °F77.0 °F79 %30.10 in10.0 miNorthClear
9:55 AM86.0 °F75.2 °F70 %30.10 in10.0 miCalmClear
10:15 AM87.8 °F75.2 °F66 %30.10 in10.0 miSW (230°)3.5 mphClear
10:35 AM87.8 °F73.4 °F62 %30.10 in10.0 miWest (270°)5.8 mphClear
10:55 AM89.6 °F73.4 °F59 %30.10 in10.0 miWest (260°)3.5 mphClear
11:15 AM89.6 °F73.4 °F59 %30.10 in10.0 miCalmClear
11:35 AM91.4 °F71.6 °F52 %30.10 in10.0 miWest (280°)3.5 mphClear
11:55 AM91.4 °F71.6 °F52 %30.09 in10.0 miWNW (290°)3.5 mphClear
12:15 PM91.4 °F71.6 °F52 %30.09 in10.0 miWest (270°)4.6 mphClear
12:35 PM93.2 °F69.8 °F46 %30.08 in10.0 miCalmClear
12:55 PM93.2 °F69.8 °F46 %30.08 in10.0 miWest (280°)3.5 mphClear
1:15 PM93.2 °F69.8 °F46 %30.07 in10.0 miNW (320°)8.1 mphScattered Clouds
1:35 PM91.4 °F73.4 °F55 %30.07 in10.0 miNW (310°)8.1 mphScattered Clouds
1:55 PM93.2 °F73.4 °F52 %30.05 in10.0 miNorth (360°)4.6 mphScattered Clouds
2:15 PM93.2 °F71.6 °F49 %30.04 in10.0 miCalmMostly Cloudy
2:35 PM91.4 °F71.6 °F52 %30.04 in10.0 miCalmOvercast
2:55 PM91.4 °F73.4 °F55 %30.04 in10.0 miNorth (350°)3.5 mphOvercast
3:15 PM91.4 °F71.6 °F52 %30.04 in10.0 miNorth (350°)4.6 mphMostly Cloudy
3:35 PM91.4 °F71.6 °F52 %30.03 in10.0 miCalmMostly Cloudy
3:55 PM91.4 °F73.4 °F55 %30.03 in10.0 miSouth (170°)3.5 mphMostly Cloudy
4:15 PM93.2 °F69.8 °F46 %30.03 in10.0 miENE (70°)5.8 mphClear
4:35 PM91.4 °F69.8 °F49 %30.03 in10.0 miNNW (330°)4.6 mphClear
4:55 PM91.4 °F71.6 °F52 %30.02 in10.0 miNorth (10°)3.5 mphClear
5:15 PM87.8 °F68.0 °F52 %30.04 in10.0 miENE (60°)4.6 mphScattered Clouds
5:35 PM80.6 °F71.6 °F74 %30.05 in10.0 miSouth (190°)10.4 mph19.6 mphRainLight Rain
5:55 PM77.0 °F77.0 °F100 %30.06 in5.0 miSSW (210°)13.8 mph0.01 inRainLight Rain
6:15 PM75.2 °F75.2 °F100 %30.04 in7.0 miWSW (250°)8.1 mph11.5 mphRainRain
6:35 PM75.2 °F75.2 °F100 %30.05 in7.0 miNW (310°)6.9 mph0.03 inRainRain
6:55 PM75.2 °F0.0 °F30.05 in10.0 miNNW (330°)3.5 mph0.03 inRainLight Rain
7:15 PM77.0 °F0.0 °F30.07 in10.0 miNNE (20°)3.5 mph0.01 inRainLight Rain
7:35 PM77.0 °F0.0 °F30.09 in10.0 miNorth0.01 inRainLight Rain
7:55 PM75.2 °F0.0 °F30.09 in10.0 miNorth0.02 inRainLight Rain
8:15 PM75.2 °F0.0 °F30.09 in10.0 miNorth0.01 inRainLight Rain
8:35 PM77.0 °F0.0 °F30.09 in10.0 miCalm0.03 inRainLight Rain
8:55 PM77.0 °F0.0 °F30.08 in10.0 miNorth0.03 inLight Drizzle
9:15 PM75.2 °F0.0 °F30.07 in10.0 miEast (100°)6.9 mphClear
9:35 PM75.2 °F0.0 °F30.08 in10.0 miCalmClear
9:55 PM75.2 °F0.0 °F30.08 in10.0 miEast (90°)4.6 mphClear
10:35 PM75.2 °F0.0 °F30.07 in10.0 miEast (100°)3.5 mphClear
10:55 PM75.2 °F0.0 °F30.09 in10.0 miENE (70°)3.5 mphClear
11:15 PM75.2 °F0.0 °F30.09 in10.0 miCalmClear
11:35 PM75.2 °F0.0 °F30.10 in10.0 miCalmClear
11:55 PM75.2 °F0.0 °F30.09 in10.0 miNNE (20°)3.5 mphClear
Hourly data recorded from KPCM, located miles away from San Martiniano, Quintana Roo







STORIES FROM OUR PARTNERS